[[{"header":{"parameterUnit":"m.s-1","parameterCategory":2,"la1":30.2991,"la2":30.254,"lo1":-89.0895,"lo2":-89.0444,"dy":0.0017,"dx":0.0017,"nx":28,"ny":28,"refTime":"2024-08-16T03:00:00:Z","depth":"0","parameterNumber":2,"parameterNumberName":"U-component_of_CURRENTS"},"data":[0,0,0,0,0,0,0,0,0,0,0,0,0,0,0,0,0,0,0,0,0,0,0,0,0,0,0,0,0,0,0,0,0,0,0,0,0,0,0,0,0,0,0,0,0,0,0,0,0,0,0,0,0,0,0,0,0,0,-0.3805,-0.3806,0,-0.373,-0.3728,-0.3725,-0.3802,-0.3807,-0.3812,-0.3817,-0.3704,-0.3697,-0.3689,0,0,0,0,0,0,0,0,0,0,0,0,0,-0.3581,-0.3585,-0.3805,-0.3806,-0.3807,-0.3731,-0.3727,-0.3724,-0.3801,-0.3807,-0.3813,-0.3819,-0.3707,-0.3698,-0.3688,0,0,0,0,0,0,0,0,0,0,0,0,0,-0.3587,-0.3587,-0.3804,-0.3854,-0.386,-0.3731,-0.3727,-0.3723,-0.3799,-0.3807,-0.3815,-0.3823,-0.371,-0.3698,-0.3687,-0.3456,0,0,-0.3651,-0.3645,0,0,0,0,0,0,0,0,-0.3587,-0.3592,-0.3846,-0.3851,-0.3857,-0.3805,-0.3609,-0.364,-0.3797,-0.3796,-0.3817,-0.3826,-0.3745,-0.373,-0.3664,-0.3451,-0.3446,-0.365,-0.3642,-0.3637,-0.3634,0,0,0,0,0,0,0,-0.3587,-0.3594,-0.375,-0.3847,-0.3854,-0.3735,-0.3745,-0.3611,-0.3707,-0.3797,-0.3809,-0.3837,-0.3745,-0.3675,-0.3663,-0.3444,-0.365,-0.3639,-0.3632,-0.3627,-0.3124,-0.3118,0,0,0,0,0,0,-0.366,-0.3595,-0.3753,-0.3751,-0.3767,-0.3736,-0.3746,-0.3794,-0.371,-0.3712,-0.383,-0.3841,-0.3692,-0.3676,-0.3659,-0.3467,-0.3637,-0.3626,-0.3619,-0.3131,-0.3123,-0.3116,0,0,0,0,0,0,-0.3656,-0.3675,-0.3756,-0.3689,-0.3695,-0.3737,-0.3785,-0.3789,-0.3779,-0.3741,-0.3739,-0.3831,-0.3697,-0.3676,-0.3545,-0.3462,-0.3621,-0.361,-0.3138,-0.3128,-0.312,-0.3028,0,0,0,0,0,0,-0.3649,-0.3674,-0.3676,-0.3695,-0.3703,-0.3684,-0.3781,-0.3782,-0.3794,-0.3808,-0.3736,-0.3732,-0.3702,-0.3563,-0.3534,-0.3448,-0.3601,-0.3146,-0.3134,-0.3123,-0.3039,-0.3016,-0.2997,0,0,0,0,0,-0.3642,-0.3637,-0.3676,-0.3694,-0.3725,-0.3683,-0.3668,-0.3707,-0.3787,-0.3733,-0.3697,-0.3737,-0.3469,-0.3546,-0.3514,-0.3424,-0.3152,-0.3137,-0.3123,-0.3048,-0.3021,-0.2998,0,0,0,0,0,0,-0.354,-0.3647,-0.3691,-0.3721,-0.3709,-0.3707,-0.3669,-0.3708,-0.3628,-0.3652,-0.3639,-0.3622,-0.3481,-0.3439,-0.3527,-0.3239,-0.332,-0.3299,-0.3274,-0.3247,-0.3227,-0.3247,-0.3591,0,0,0,0,0,-0.3522,-0.3542,-0.3611,-0.3614,-0.3628,-0.3645,-0.3628,-0.3656,-0.3625,-0.3604,-0.3541,-0.3467,-0.337,-0.3315,-0.3205,-0.3024,-0.3041,-0.2946,-0.2925,-0.2908,-0.2896,-0.2876,-0.2855,-0.307,-0.307,-0.307,0,0,-0.3498,-0.354,-0.3564,-0.3589,-0.359,-0.3517,-0.3648,-0.3627,-0.3544,-0.359,-0.3418,-0.3385,-0.3307,-0.3126,-0.3058,-0.3098,-0.2841,-0.289,-0.2878,-0.2874,-0.2859,-0.284,-0.2822,-0.306,-0.3062,-0.3064,0,0,-0.3375,-0.3489,-0.3431,-0.3414,-0.3422,-0.3429,-0.3441,-0.3422,-0.3408,-0.3256,-0.3276,-0.3193,-0.3011,-0.2935,-0.2887,-0.2667,-0.274,-0.2642,-0.2543,-0.2523,-0.2508,-0.2495,-0.2457,-0.2442,-0.2626,-0.2625,-0.2625,0,-0.3307,-0.3285,-0.339,-0.3294,-0.3285,-0.3396,-0.3303,-0.3256,-0.3173,-0.315,-0.3196,-0.2977,-0.2912,-0.2747,-0.2672,-0.2624,-0.2642,-0.2662,-0.2506,-0.2493,-0.2482,-0.2447,-0.2431,-0.2619,-0.262,-0.2621,-0.2621,0,-0.3124,-0.3095,-0.3063,-0.3001,-0.298,-0.2932,-0.2949,-0.2894,-0.2928,-0.2904,-0.2786,-0.2699,-0.2606,-0.2548,-0.254,-0.2399,-0.2446,-0.2502,-0.2598,-0.2457,-0.2425,-0.2411,-0.2611,-0.2613,-0.2615,-0.2616,0,0,-0.2954,-0.2943,-0.2912,-0.2885,-0.2849,-0.2833,-0.2715,-0.2668,-0.266,-0.2561,-0.2515,-0.2326,-0.2388,-0.2332,-0.232,-0.2274,-0.218,-0.235,-0.2352,-0.236,-0.2142,-0.2065,-0.2043,-0.2253,-0.225,-0.2248,-0.2145,0,-0.2753,-0.2598,-0.2623,-0.2473,-0.2428,-0.2507,-0.2412,-0.2391,-0.2407,-0.2365,-0.2349,-0.2281,-0.2278,-0.2276,-0.2218,-0.2219,-0.2143,-0.2202,-0.2234,-0.2233,-0.2224,-0.2023,-0.1954,-0.1849,-0.2132,-0.213,-0.2128,0,-0.25,-0.2466,-0.232,-0.2322,-0.2315,-0.2234,-0.2249,-0.2177,-0.2173,-0.2199,-0.217,-0.2204,-0.2097,-0.2157,-0.2053,-0.2116,-0.2091,-0.2088,-0.2087,-0.2042,-0.2128,-0.2033,-0.1813,-0.1817,-0.2107,-0.2109,-0.211,0,-0.2345,-0.2235,-0.2158,-0.2139,-0.2138,-0.2109,-0.2116,-0.212,-0.2129,-0.2117,-0.2157,-0.2078,-0.2072,-0.2033,-0.2,-0.2051,-0.1929,-0.2008,-0.1889,-0.1886,-0.1837,-0.1832,-0.1665,-0.1901,-0.1901,-0.1902,-0.1902,0,-0.2121,-0.2045,-0.2102,-0.206,-0.2019,-0.2039,-0.2018,-0.2024,-0.2062,-0.2062,-0.2084,-0.2067,-0.2056,-0.2008,-0.1975,-0.1863,-0.1897,-0.1814,-0.1831,-0.1792,-0.1785,-0.1799,-0.1854,-0.1898,-0.1899,-0.1899,-0.19,0,-0.1937,-0.1951,-0.1891,-0.1926,-0.1941,-0.1922,-0.2002,-0.2025,-0.2046,-0.2051,-0.2054,-0.206,-0.1976,-0.1937,-0.186,-0.1818,-0.17,-0.1681,-0.1617,-0.1624,-0.1525,-0.1577,-0.1438,-0.1394,-0.1534,-0.1531,-0.1528,0,-0.1834,-0.1784,-0.1831,-0.1851,-0.1867,-0.1887,-0.1936,-0.1997,-0.2037,-0.2024,-0.2028,-0.196,-0.1852,-0.1708,-0.1634,-0.1513,-0.1559,-0.1401,-0.1443,-0.1438,-0.1512,-0.1569,-0.1548,-0.1337,-0.1333,-0.133,-0.1328,0,-0.1679,-0.1707,-0.1711,-0.1765,-0.1811,-0.1849,-0.1907,-0.1911,-0.1961,-0.1914,-0.1785,-0.1678,-0.1598,-0.1432,-0.1342,-0.1284,-0.1383,-0.1332,-0.135,-0.1319,-0.1349,-0.1343,-0.1493,-0.13,-0.1303,-0.1305,-0.1306,-0.1307,-0.1599,-0.159,-0.1632,-0.1675,-0.1734,-0.1727,-0.1651,-0.17,-0.1617,-0.1441,-0.1467,-0.1208,-0.1249,-0.1095,-0.1058,-0.1061,-0.1142,-0.1059,-0.1114,-0.1166,-0.1123,-0.1179,-0.1001,-0.1002,-0.1003,-0.1004,-0.1004,0,-0.1491,-0.1514,-0.1556,-0.1558,-0.1554,-0.1619,-0.1587,-0.1457,-0.1228,-0.1135,-0.0911,-0.0704,-0.0695,-0.0799,-0.092,-0.0884,-0.0887,-0.0883,-0.0966,-0.0948,-0.0999,-0.0991,-0.0775,-0.0775,-0.0775,-0.0775,-0.0775,-0.0775,-0.1435,-0.1431,-0.1464,-0.1387,-0.1367,-0.1215,-0.1109,-0.0924,-0.0798,-0.0456,-0.0263,-0.0182,-0.0429,-0.0779,-0.0916,-0.0874,-0.0883,-0.084,-0.0874,-0.0956,-0.0978,-0.1,-0.1,-0.079,-0.079,-0.0781,-0.0781,-0.0781]},{"header":{"parameterUnit":"m.s-1","parameterCategory":2,"la1":30.2991,"la2":30.254,"lo1":-89.0895,"lo2":-89.0444,"dy":0.0017,"dx":0.0017,"nx":28,"ny":28,"refTime":"2024-08-16T03:00:00:Z","depth":"0","parameterNumber":3,"parameterNumberName":"V-component_of_CURRENTS"},"data":[0,0,0,0,0,0,0,0,0,0,0,0,0,0,0,0,0,0,0,0,0,0,0,0,0,0,0,0,0,0,0,0,0,0,0,0,0,0,0,0,0,0,0,0,0,0,0,0,0,0,0,0,0,0,0,0,0,0,-0.0497,-0.0496,0,-0.0295,-0.0292,-0.0289,-0.0145,-0.0145,-0.0144,-0.0144,0.0187,0.0196,0.0204,0,0,0,0,0,0,0,0,0,0,0,0,0,-0.0612,-0.0611,-0.0497,-0.0496,-0.0494,-0.0296,-0.0292,-0.0288,-0.0145,-0.0145,-0.0144,-0.0144,0.0184,0.0195,0.0205,0,0,0,0,0,0,0,0,0,0,0,0,0,-0.0492,-0.0611,-0.0497,-0.0406,-0.0397,-0.0296,-0.0292,-0.0287,-0.0145,-0.0145,-0.0144,-0.0144,0.0181,0.0194,0.0206,0.028,0,0,0.0246,0.0252,0,0,0,0,0,0,0,0,-0.0499,-0.0487,-0.0421,-0.0412,-0.0402,-0.0254,-0.0211,-0.0095,-0.0145,-0.023,-0.0144,-0.0144,0.0045,0.0069,0.0119,0.0295,0.031,0.0247,0.0255,0.0261,0.0264,0,0,0,0,0,0,0,-0.0508,-0.0494,-0.0406,-0.042,-0.0408,-0.0326,-0.0309,-0.0187,-0.0086,-0.0222,-0.0214,-0.0208,0.0053,0.0106,0.0128,0.0315,0.0247,0.0258,0.0266,0.0271,0.0599,0.06,0,0,0,0,0,0,-0.0562,-0.0503,-0.0413,-0.0402,-0.0462,-0.0326,-0.0306,-0.0293,-0.009,-0.0063,-0.0209,-0.0202,0.0084,0.0113,0.014,0.0227,0.026,0.0273,0.028,0.0598,0.0599,0.06,0,0,0,0,0,0,-0.0565,-0.0555,-0.0421,-0.0456,-0.0435,-0.0326,-0.0312,-0.029,-0.0242,-0.0083,-0.0051,-0.0186,0.0085,0.0122,0.0247,0.0241,0.0278,0.029,0.0597,0.0598,0.0599,0.0408,0,0,0,0,0,0,-0.0569,-0.0557,-0.0565,-0.046,-0.0435,-0.036,-0.0313,-0.0286,-0.0243,-0.0233,-0.0053,-0.0021,0.0088,0.0227,0.026,0.026,0.03,0.0595,0.0597,0.0599,0.0413,0.0403,0.0394,0,0,0,0,0,-0.0573,-0.0575,-0.0566,-0.0556,-0.0449,-0.0361,-0.0338,-0.0253,-0.0244,-0.0211,-0.0101,-0.0027,0.0261,0.0238,0.0277,0.028,0.0595,0.0597,0.0599,0.0417,0.0405,0.0394,0,0,0,0,0,0,-0.0625,-0.0559,-0.0546,-0.0529,-0.046,-0.0341,-0.0311,-0.0269,-0.0158,-0.015,-0.001,0.0031,0.0141,0.0242,0.0212,0.0383,0.0439,0.0449,0.0288,0.0278,0.0268,0.0211,0.0311,0,0,0,0,0,-0.0649,-0.0634,-0.0557,-0.0545,-0.0517,-0.0424,-0.0384,-0.0329,-0.0226,-0.0178,-0.0062,0.0067,0.0182,0.0249,0.0379,0.047,0.0527,0.05,0.049,0.0481,0.0464,0.0526,0.0518,0.0607,0.0607,0.0607,0,0,-0.0673,-0.0634,-0.0629,-0.0557,-0.0495,-0.0445,-0.0394,-0.0336,-0.0295,-0.0158,-0.0061,0.0044,0.0202,0.0306,0.0363,0.0386,0.0488,0.0484,0.0474,0.0462,0.0527,0.0517,0.0509,0.0608,0.0608,0.0608,0,0,-0.0692,-0.0673,-0.0658,-0.0605,-0.0532,-0.047,-0.0468,-0.0359,-0.0309,-0.0207,-0.0113,-0.0037,0.0174,0.0249,0.0322,0.0337,0.0436,0.0399,0.03,0.0359,0.035,0.0344,0.039,0.0389,0.0388,0.0388,0.0388,0,-0.0722,-0.0694,-0.0638,-0.0601,-0.057,-0.0494,-0.0464,-0.0397,-0.0265,-0.0234,-0.0191,0.0033,0.0139,0.0229,0.0225,0.0307,0.0364,0.0318,0.0338,0.0333,0.033,0.0379,0.0381,0.0379,0.038,0.0381,0.0382,0,-0.0714,-0.0696,-0.068,-0.0617,-0.0573,-0.0533,-0.0455,-0.0408,-0.0354,-0.0288,-0.0191,-0.0063,0.006,0.0098,0.0168,0.0196,0.0252,0.0312,0.0345,0.0307,0.0365,0.0369,0.0366,0.0369,0.0372,0.0374,0,0,-0.0756,-0.0692,-0.0685,-0.0668,-0.0583,-0.0542,-0.0498,-0.0428,-0.0406,-0.0303,-0.0263,-0.0135,-0.0097,-0.0017,0.0063,0.009,0.0086,0.0171,0.0179,0.0176,0.0215,0.0242,0.0251,0.0153,0.0154,0.0154,0.0258,0,-0.0762,-0.0727,-0.0686,-0.0651,-0.0624,-0.0563,-0.0524,-0.0462,-0.0393,-0.033,-0.0256,-0.0165,-0.0127,-0.0082,-0.0058,0.0078,0.0094,0.0052,0.029,0.0297,0.029,0.0255,0.0318,0.0416,0.0263,0.0264,0.0265,0,-0.075,-0.0734,-0.0714,-0.0674,-0.0658,-0.063,-0.0576,-0.053,-0.0446,-0.0393,-0.0336,-0.0249,-0.0198,-0.0155,-0.0014,-0.0033,0.0057,0.0139,0.0147,0.024,0.0332,0.044,0.0431,0.0561,0.0273,0.0272,0.0272,0,-0.0786,-0.0744,-0.0742,-0.0723,-0.0666,-0.0659,-0.0628,-0.0556,-0.0518,-0.0442,-0.0393,-0.0313,-0.0238,-0.014,0.0009,0.001,0.0174,0.0215,0.0314,0.0318,0.0451,0.0466,0.056,0.0286,0.0286,0.0285,0.0285,0,-0.0791,-0.0783,-0.0764,-0.0758,-0.0762,-0.0705,-0.0692,-0.0646,-0.0574,-0.049,-0.0439,-0.0343,-0.0228,-0.0107,-0.0001,0.017,0.0173,0.0279,0.0341,0.0388,0.0395,0.0582,0.0635,0.0289,0.0288,0.0288,0.0287,0,-0.0812,-0.0796,-0.0797,-0.0778,-0.0776,-0.0779,-0.0741,-0.0711,-0.0641,-0.0529,-0.0501,-0.0361,-0.0198,-0.009,0.01,0.0183,0.042,0.0385,0.0415,0.0476,0.0663,0.0704,0.0859,0.0951,0.05,0.0501,0.0502,0,-0.0817,-0.0821,-0.0834,-0.0851,-0.0846,-0.0845,-0.0828,-0.0759,-0.0666,-0.0492,-0.0393,-0.0268,-0.0076,0.0148,0.0262,0.0417,0.0511,0.0565,0.0555,0.0661,0.0754,0.0772,0.084,0.0664,0.0666,0.0668,0.0669,0,-0.0838,-0.0849,-0.0863,-0.0903,-0.0905,-0.0858,-0.0782,-0.0709,-0.0545,-0.0412,-0.0131,0.0008,0.0169,0.0367,0.0466,0.0567,0.0673,0.0606,0.0733,0.0884,0.0898,0.1023,0.0595,0.0686,0.0684,0.0683,0.0682,0.0681,-0.0863,-0.0893,-0.092,-0.0945,-0.091,-0.0763,-0.0664,-0.051,-0.03,0.0041,0.0126,0.0395,0.0539,0.0689,0.0747,0.0873,0.0826,0.0958,0.0998,0.1003,0.1088,0.0666,0.0813,0.0812,0.0811,0.0811,0.081,0,-0.0885,-0.0911,-0.0953,-0.0898,-0.0773,-0.0764,-0.0542,-0.0359,-0.0016,0.0242,0.0537,0.0844,0.0999,0.1049,0.1152,0.1264,0.1301,0.1333,0.1395,0.1447,0.1108,0.111,0.1309,0.1309,0.1309,0.1308,0.1308,0.1308,-0.0898,-0.0941,-0.0956,-0.0755,-0.0658,-0.0391,-0.0209,0.0045,0.0287,0.0732,0.0966,0.1137,0.1245,0.1457,0.1593,0.1626,0.1782,0.1751,0.1818,0.1604,0.1572,0.1542,0.1558,0.1847,0.1847,0.2173,0.2176,0.2178]}],[{"header":{"parameterUnit":"m.s-1","parameterCategory":2,"la1":30.2991,"la2":30.254,"lo1":-89.0895,"lo2":-89.0444,"dy":0.0017,"dx":0.0017,"nx":28,"ny":28,"refTime":"2024-08-16T03:00:00:Z","depth":"2","parameterNumber":2,"parameterNumberName":"U-component_of_CURRENTS"},"data":[0,0,0,0,0,0,0,0,0,0,0,0,0,0,0,0,0,0,0,0,0,0,0,0,0,0,0,0,0,0,0,0,0,0,0,0,0,0,0,0,0,0,0,0,0,0,0,0,0,0,0,0,0,0,0,0,0,0,-0.2037,-0.2038,0,-0.2115,-0.2116,-0.2116,-0.2152,-0.2152,-0.2153,-0.2153,-0.2282,-0.2285,-0.2288,0,0,0,0,0,0,0,0,0,0,0,0,0,-0.197,-0.197,-0.2037,-0.2038,-0.2039,-0.2115,-0.2116,-0.2116,-0.2152,-0.2152,-0.2153,-0.2153,-0.2281,-0.2285,-0.2289,0,0,0,0,0,0,0,0,0,0,0,0,0,-0.2015,-0.197,-0.2037,-0.2069,-0.2073,-0.2115,-0.2116,-0.2116,-0.2152,-0.2153,-0.2153,-0.2153,-0.228,-0.2284,-0.2289,-0.231,0,0,-0.2304,-0.2306,0,0,0,0,0,0,0,0,-0.2012,-0.2017,-0.2063,-0.2067,-0.2072,-0.2128,-0.214,-0.2185,-0.2152,-0.2118,-0.2153,-0.2154,-0.2237,-0.2246,-0.2253,-0.2316,-0.2321,-0.2304,-0.2307,-0.2309,-0.231,0,0,0,0,0,0,0,-0.2009,-0.2014,-0.2064,-0.2065,-0.207,-0.2098,-0.2104,-0.2148,-0.2172,-0.2121,-0.2125,-0.2139,-0.224,-0.2248,-0.2257,-0.2323,-0.2304,-0.2308,-0.2311,-0.2313,-0.2372,-0.2371,0,0,0,0,0,0,-0.2004,-0.201,-0.2061,-0.2067,-0.2047,-0.2099,-0.2105,-0.2106,-0.2171,-0.2182,-0.2139,-0.2141,-0.224,-0.2251,-0.2261,-0.2267,-0.2309,-0.2313,-0.2316,-0.2373,-0.2372,-0.237,0,0,0,0,0,0,-0.2002,-0.2007,-0.2058,-0.2044,-0.2053,-0.2099,-0.21,-0.2108,-0.2124,-0.2185,-0.2196,-0.2149,-0.2241,-0.2255,-0.2307,-0.2273,-0.2316,-0.232,-0.2375,-0.2373,-0.2371,-0.2293,0,0,0,0,0,0,-0.1999,-0.2005,-0.2008,-0.2043,-0.2054,-0.2076,-0.2101,-0.2109,-0.2134,-0.2137,-0.2197,-0.2209,-0.2242,-0.2299,-0.2311,-0.228,-0.2324,-0.2376,-0.2374,-0.2372,-0.2297,-0.2289,-0.2281,0,0,0,0,0,-0.1996,-0.2001,-0.2007,-0.2014,-0.2054,-0.2076,-0.2083,-0.2116,-0.2134,-0.2133,-0.2183,-0.2208,-0.2291,-0.2304,-0.2318,-0.2287,-0.2378,-0.2375,-0.2372,-0.2301,-0.229,-0.2281,0,0,0,0,0,0,-0.1983,-0.2006,-0.2014,-0.2028,-0.2046,-0.2084,-0.2099,-0.2117,-0.2153,-0.2173,-0.2217,-0.2232,-0.2248,-0.2287,-0.2299,-0.2293,-0.2328,-0.2328,-0.2269,-0.226,-0.2252,-0.2254,-0.2327,0,0,0,0,0,-0.1978,-0.198,-0.2008,-0.2018,-0.2029,-0.2062,-0.2079,-0.2104,-0.2142,-0.2158,-0.2197,-0.2234,-0.2244,-0.2272,-0.2293,-0.2319,-0.2328,-0.2299,-0.2291,-0.2284,-0.2294,-0.2283,-0.2275,-0.2361,-0.2361,-0.2361,0,0,-0.1977,-0.1992,-0.1994,-0.2014,-0.2036,-0.2048,-0.2072,-0.2104,-0.2112,-0.217,-0.2198,-0.2213,-0.2242,-0.225,-0.226,-0.2286,-0.2256,-0.2281,-0.2275,-0.2288,-0.2279,-0.2271,-0.2263,-0.2359,-0.2359,-0.236,0,0,-0.1974,-0.1986,-0.1986,-0.1998,-0.2034,-0.2053,-0.2059,-0.2098,-0.2109,-0.2137,-0.216,-0.2166,-0.2207,-0.2211,-0.2217,-0.2186,-0.2205,-0.218,-0.2159,-0.2147,-0.214,-0.2134,-0.2098,-0.209,-0.2188,-0.2187,-0.2187,0,-0.1974,-0.1975,-0.199,-0.1997,-0.2012,-0.205,-0.2058,-0.2072,-0.2122,-0.2128,-0.2137,-0.2156,-0.2179,-0.2171,-0.2149,-0.2166,-0.2162,-0.2193,-0.2137,-0.2132,-0.2127,-0.2092,-0.2084,-0.2183,-0.2184,-0.2184,-0.2185,0,-0.1963,-0.1973,-0.1978,-0.1989,-0.2003,-0.2022,-0.2045,-0.206,-0.2077,-0.2087,-0.2082,-0.2101,-0.2114,-0.2096,-0.2117,-0.2085,-0.209,-0.2117,-0.2161,-0.2113,-0.2079,-0.2072,-0.2177,-0.2179,-0.218,-0.2181,0,0,-0.1938,-0.1964,-0.1965,-0.1971,-0.2004,-0.2014,-0.2026,-0.2037,-0.2045,-0.2054,-0.2047,-0.2031,-0.2043,-0.2051,-0.2061,-0.2049,-0.1989,-0.2072,-0.2073,-0.2036,-0.1945,-0.1859,-0.1843,-0.2011,-0.201,-0.2009,-0.1921,0,-0.1925,-0.1931,-0.1949,-0.1958,-0.1964,-0.1997,-0.2,-0.2019,-0.2029,-0.2034,-0.2026,-0.2024,-0.2024,-0.2027,-0.201,-0.2009,-0.1974,-0.201,-0.1999,-0.1998,-0.1927,-0.1834,-0.1723,-0.1628,-0.1914,-0.1913,-0.1912,0,-0.1899,-0.191,-0.1911,-0.1941,-0.1947,-0.1955,-0.1973,-0.1985,-0.1998,-0.2007,-0.2003,-0.2012,-0.1992,-0.1999,-0.1953,-0.198,-0.1952,-0.1938,-0.1935,-0.1886,-0.1899,-0.173,-0.1605,-0.1901,-0.1902,-0.1903,-0.1904,0,-0.1852,-0.1882,-0.1881,-0.1889,-0.1924,-0.1928,-0.1948,-0.1969,-0.1981,-0.1992,-0.1999,-0.1986,-0.1978,-0.1951,-0.1913,-0.194,-0.1853,-0.1892,-0.1776,-0.1769,-0.1689,-0.1676,-0.1838,-0.1838,-0.1839,-0.1839,-0.1839,0,-0.1815,-0.1813,-0.186,-0.1853,-0.1861,-0.1897,-0.1905,-0.1925,-0.1955,-0.1958,-0.1982,-0.1969,-0.1968,-0.1925,-0.1896,-0.1793,-0.1832,-0.1744,-0.1734,-0.1653,-0.1639,-0.1907,-0.1916,-0.1836,-0.1836,-0.1837,-0.1837,0,-0.1744,-0.1775,-0.1777,-0.1818,-0.1833,-0.1832,-0.1884,-0.1891,-0.1928,-0.1933,-0.1938,-0.1948,-0.1879,-0.1847,-0.179,-0.1753,-0.1682,-0.1634,-0.1521,-0.1497,-0.1613,-0.162,-0.1502,-0.1498,-0.1495,-0.1492,-0.149,0,-0.1698,-0.1695,-0.174,-0.1747,-0.1761,-0.1783,-0.18,-0.1859,-0.1867,-0.1904,-0.1889,-0.1851,-0.1792,-0.1664,-0.1569,-0.1462,-0.1551,-0.1325,-0.1353,-0.1573,-0.1576,-0.1587,-0.1598,-0.1205,-0.12,-0.1196,-0.1193,0,-0.1612,-0.1634,-0.1643,-0.166,-0.1677,-0.1692,-0.1717,-0.1726,-0.1784,-0.1799,-0.1786,-0.1754,-0.1625,-0.1455,-0.131,-0.1246,-0.1338,-0.1245,-0.1492,-0.131,-0.1286,-0.1291,-0.1312,-0.1161,-0.1164,-0.1166,-0.1168,-0.117,-0.1545,-0.1537,-0.1554,-0.1554,-0.1573,-0.1552,-0.1527,-0.1569,-0.1565,-0.1547,-0.162,-0.1529,-0.1484,-0.1185,-0.1078,-0.0976,-0.1075,-0.1057,-0.1072,-0.1089,-0.1073,-0.1045,-0.087,-0.0872,-0.0873,-0.0874,-0.0875,0,-0.1449,-0.1444,-0.1446,-0.1426,-0.1381,-0.1432,-0.1429,-0.1385,-0.1339,-0.1358,-0.1346,-0.1193,-0.1052,-0.0985,-0.0771,-0.0722,-0.0743,-0.0702,-0.0752,-0.0783,-0.0811,-0.0786,-0.0504,-0.0503,-0.0502,-0.0501,0,0,-0.1396,-0.1351,-0.1344,-0.1218,-0.1206,-0.1107,-0.1077,-0.1053,-0.1034,-0.0975,-0.0941,-0.1021,-0.0989,-0.0783,-0.0702,-0.0568,-0.0677,-0.053,-0.0826,-0.0919,-0.0946,-0.1007,-0.1,0,0,0,0,0]},{"header":{"parameterUnit":"m.s-1","parameterCategory":2,"la1":30.2991,"la2":30.254,"lo1":-89.0895,"lo2":-89.0444,"dy":0.0017,"dx":0.0017,"nx":28,"ny":28,"refTime":"2024-08-16T03:00:00:Z","depth":"2","parameterNumber":3,"parameterNumberName":"V-component_of_CURRENTS"},"data":[0,0,0,0,0,0,0,0,0,0,0,0,0,0,0,0,0,0,0,0,0,0,0,0,0,0,0,0,0,0,0,0,0,0,0,0,0,0,0,0,0,0,0,0,0,0,0,0,0,0,0,0,0,0,0,0,0,0,-0.0471,-0.0471,0,-0.0407,-0.0406,-0.0405,-0.0353,-0.0352,-0.0352,-0.0352,-0.0164,-0.0159,-0.0155,0,0,0,0,0,0,0,0,0,0,0,0,0,-0.0514,-0.0513,-0.0471,-0.0471,-0.047,-0.0407,-0.0406,-0.0405,-0.0353,-0.0352,-0.0352,-0.0351,-0.0166,-0.016,-0.0154,0,0,0,0,0,0,0,0,0,0,0,0,0,-0.0475,-0.0513,-0.0471,-0.0438,-0.0435,-0.0408,-0.0406,-0.0405,-0.0353,-0.0352,-0.0352,-0.0351,-0.0167,-0.0161,-0.0154,-0.0121,0,0,-0.0132,-0.0129,0,0,0,0,0,0,0,0,-0.0477,-0.0473,-0.0443,-0.044,-0.0436,-0.0389,-0.0353,-0.0305,-0.0353,-0.0381,-0.0352,-0.0351,-0.023,-0.0218,-0.0205,-0.0112,-0.0104,-0.0132,-0.0127,-0.0124,-0.0122,0,0,0,0,0,0,0,-0.048,-0.0476,-0.0443,-0.0443,-0.0439,-0.0415,-0.0409,-0.0344,-0.0305,-0.0379,-0.0375,-0.0372,-0.0227,-0.0212,-0.02,-0.0101,-0.0132,-0.0126,-0.0121,-0.0119,0.0056,0.0057,0,0,0,0,0,0,-0.0495,-0.0478,-0.0446,-0.0442,-0.0459,-0.0415,-0.0408,-0.0403,-0.0308,-0.0295,-0.0373,-0.037,-0.0224,-0.0208,-0.0193,-0.0136,-0.0124,-0.0118,-0.0114,0.0056,0.0056,0.0057,0,0,0,0,0,0,-0.0496,-0.0493,-0.0448,-0.0461,-0.0453,-0.0415,-0.041,-0.0402,-0.0387,-0.0306,-0.0289,-0.0365,-0.0223,-0.0203,-0.013,-0.0128,-0.0115,-0.0108,0.0055,0.0056,0.0057,-0.0028,0,0,0,0,0,0,-0.0498,-0.0494,-0.0495,-0.0462,-0.0453,-0.0435,-0.041,-0.0401,-0.0387,-0.0382,-0.0294,-0.0276,-0.0221,-0.0141,-0.0123,-0.0118,-0.0103,0.0055,0.0056,0.0056,-0.0026,-0.0031,-0.0034,0,0,0,0,0,-0.0499,-0.0502,-0.0496,-0.0492,-0.0457,-0.0436,-0.0429,-0.0398,-0.0387,-0.0382,-0.0318,-0.0279,-0.0123,-0.0135,-0.0114,-0.0107,0.0054,0.0055,0.0056,-0.0024,-0.003,-0.0034,0,0,0,0,0,0,-0.052,-0.0496,-0.0489,-0.0484,-0.0465,-0.0428,-0.0422,-0.0404,-0.0353,-0.0344,-0.0268,-0.0245,-0.0184,-0.013,-0.0146,-0.0054,-0.003,-0.0025,-0.0098,-0.0102,-0.0107,-0.0108,-0.0097,0,0,0,0,0,-0.0529,-0.0526,-0.0499,-0.0498,-0.049,-0.0459,-0.0447,-0.0428,-0.0382,-0.036,-0.03,-0.0229,-0.0164,-0.0123,-0.006,-0.0004,0.0041,0.0013,0.0009,0.0005,0.0019,0.0078,0.008,0.006,0.006,0.006,0,0,-0.0538,-0.0526,-0.0525,-0.0503,-0.0486,-0.0469,-0.0449,-0.0436,-0.0414,-0.0345,-0.0292,-0.0241,-0.0153,-0.0096,-0.0064,-0.005,0.0031,0.0006,0.0002,0.0019,0.008,0.0082,0.0083,0.0061,0.0061,0.0061,0,0,-0.0554,-0.0545,-0.0545,-0.0529,-0.0509,-0.0485,-0.0485,-0.0449,-0.0424,-0.0376,-0.0321,-0.0264,-0.0171,-0.0108,-0.0062,-0.0046,0.0002,-0.0037,-0.0052,0.0004,0.0006,0.0009,0.0045,0.0052,-0.0035,-0.0035,-0.0036,0,-0.0567,-0.056,-0.0543,-0.0534,-0.0522,-0.0494,-0.0485,-0.0454,-0.0399,-0.0375,-0.0366,-0.0238,-0.017,-0.0088,-0.0086,-0.0055,-0.0027,-0.0046,-0.0003,0.0,0.0004,0.0042,0.005,-0.0039,-0.0039,-0.0039,-0.0038,0,-0.0574,-0.0569,-0.0569,-0.0547,-0.0531,-0.0522,-0.0481,-0.0459,-0.0434,-0.04,-0.0334,-0.0255,-0.0177,-0.0156,-0.0111,-0.0052,-0.0044,-0.0024,0.0002,0.0001,0.0041,0.0051,-0.0045,-0.0044,-0.0042,-0.0041,0,0,-0.0602,-0.0579,-0.0579,-0.0575,-0.0538,-0.0528,-0.0491,-0.045,-0.0428,-0.0379,-0.0342,-0.0243,-0.0219,-0.0165,-0.0114,-0.0063,-0.0021,-0.004,-0.0035,-0.0016,0.0084,0.0093,0.0105,-0.0005,-0.0003,-0.0002,0.0091,0,-0.0613,-0.0611,-0.0587,-0.0578,-0.0573,-0.0535,-0.0504,-0.0463,-0.0423,-0.0381,-0.0307,-0.0253,-0.0217,-0.0192,-0.0135,-0.0044,0.0005,-0.0049,0.0096,0.0101,0.0099,0.0118,0.0106,0.0189,0.0101,0.0103,0.0104,0,-0.0626,-0.0623,-0.0622,-0.06,-0.0593,-0.058,-0.0537,-0.0506,-0.0435,-0.0404,-0.0344,-0.0293,-0.0202,-0.0183,-0.0032,-0.0075,0.0002,0.0065,0.007,0.0123,0.013,0.0184,0.0211,0.0122,0.012,0.0119,0.0118,0,-0.0662,-0.0646,-0.0651,-0.0642,-0.061,-0.06,-0.0578,-0.0519,-0.0492,-0.0422,-0.0397,-0.0298,-0.0238,-0.0137,-0.0008,-0.0021,0.0149,0.0151,0.0234,0.0235,0.028,0.0282,0.0263,0.0262,0.0262,0.0262,0.0262,0,-0.0683,-0.0687,-0.0674,-0.0677,-0.0682,-0.0642,-0.063,-0.0593,-0.0534,-0.0504,-0.0418,-0.0364,-0.0223,-0.0114,-0.0012,0.0143,0.0152,0.0245,0.0269,0.0248,0.0246,0.0238,0.0234,0.0265,0.0265,0.0264,0.0263,0,-0.0721,-0.071,-0.0722,-0.0705,-0.0703,-0.071,-0.0678,-0.0665,-0.06,-0.0557,-0.0538,-0.04,-0.0253,-0.0114,0.0069,0.015,0.0286,0.0339,0.0293,0.031,0.033,0.0321,0.0438,0.044,0.0441,0.0442,0.0442,0,-0.0737,-0.0749,-0.0759,-0.0776,-0.0773,-0.0773,-0.0772,-0.0713,-0.0694,-0.0575,-0.0557,-0.0401,-0.0285,-0.0017,0.0159,0.0342,0.0339,0.0423,0.041,0.0342,0.0353,0.0342,0.0332,0.0429,0.0429,0.043,0.043,0,-0.0771,-0.0781,-0.0795,-0.0834,-0.0849,-0.086,-0.085,-0.0841,-0.0764,-0.0712,-0.0601,-0.0495,-0.0209,0.0012,0.0253,0.0354,0.0387,0.0439,0.041,0.0377,0.0339,0.0347,0.0337,0.0435,0.0434,0.0434,0.0434,0.0433,-0.08,-0.0829,-0.0855,-0.0888,-0.0914,-0.0938,-0.0938,-0.0915,-0.0882,-0.0771,-0.0672,-0.0478,-0.0232,0.0129,0.0306,0.0472,0.0463,0.0492,0.0488,0.0485,0.0458,0.0423,0.0529,0.0529,0.0529,0.0529,0.053,0,-0.0829,-0.0861,-0.0903,-0.0946,-0.0982,-0.098,-0.098,-0.0953,-0.0917,-0.0789,-0.0678,-0.0413,-0.0147,0.0121,0.04,0.0543,0.0532,0.0555,0.0516,0.0511,0.0507,0.0479,0.0557,0.0558,0.0558,0.0559,0,0,-0.0847,-0.0894,-0.0917,-0.0987,-0.1019,-0.1039,-0.1036,-0.0989,-0.0891,-0.0752,-0.0598,-0.0432,-0.0106,0.0081,0.0282,0.044,0.0429,0.0446,0.0408,0.0333,0.0327,0.0456,0.0406,0,0,0,0,0]}],[{"header":{"parameterUnit":"m.s-1","parameterCategory":2,"la1":30.2991,"la2":30.254,"lo1":-89.0895,"lo2":-89.0444,"dy":0.0017,"dx":0.0017,"nx":28,"ny":28,"refTime":"2024-08-16T03:00:00:Z","depth":"4","parameterNumber":2,"parameterNumberName":"U-component_of_CURRENTS"},"data":[0,0,0,0,0,0,0,0,0,0,0,0,0,0,0,0,0,0,0,0,0,0,0,0,0,0,0,0,0,0,0,0,0,0,0,0,0,0,0,0,0,0,0,0,0,0,0,0,0,0,0,0,0,0,0,0,0,0,-0.1364,-0.1364,0,-0.1397,-0.1397,-0.1397,-0.1421,-0.1422,-0.1422,-0.1422,-0.1455,-0.1456,-0.1456,0,0,0,0,0,0,0,0,0,0,0,0,0,-0.1332,-0.1332,-0.1364,-0.1364,-0.1365,-0.1397,-0.1397,-0.1397,-0.1421,-0.1422,-0.1422,-0.1422,-0.1455,-0.1455,-0.1456,0,0,0,0,0,0,0,0,0,0,0,0,0,-0.1352,-0.1332,-0.1364,-0.1382,-0.1384,-0.1396,-0.1397,-0.1397,-0.1421,-0.1422,-0.1422,-0.1423,-0.1455,-0.1455,-0.1456,-0.145,0,0,-0.1459,-0.1459,0,0,0,0,0,0,0,0,-0.1351,-0.1353,-0.1379,-0.1381,-0.1383,-0.1407,-0.1398,-0.1416,-0.1421,-0.1405,-0.1422,-0.1423,-0.144,-0.1442,-0.1444,-0.1452,-0.1453,-0.1459,-0.1459,-0.146,-0.146,0,0,0,0,0,0,0,-0.1349,-0.1352,-0.1375,-0.1379,-0.1382,-0.1392,-0.1395,-0.1401,-0.1418,-0.1407,-0.1409,-0.1415,-0.1441,-0.1443,-0.1445,-0.1454,-0.1459,-0.1459,-0.146,-0.146,-0.1492,-0.1492,0,0,0,0,0,0,-0.1347,-0.135,-0.1374,-0.1376,-0.137,-0.1392,-0.1396,-0.1397,-0.1418,-0.1422,-0.1415,-0.1416,-0.1442,-0.1444,-0.1446,-0.1493,-0.146,-0.146,-0.1461,-0.1492,-0.1492,-0.1493,0,0,0,0,0,0,-0.1347,-0.1349,-0.1373,-0.1366,-0.137,-0.1392,-0.1394,-0.1398,-0.1419,-0.1424,-0.1428,-0.1435,-0.1442,-0.1445,-0.1475,-0.1493,-0.1461,-0.1461,-0.1491,-0.1492,-0.1492,-0.1553,0,0,0,0,0,0,-0.1345,-0.1348,-0.1359,-0.1365,-0.137,-0.1386,-0.1394,-0.1398,-0.1422,-0.1425,-0.1442,-0.1445,-0.1443,-0.1474,-0.1476,-0.1493,-0.1462,-0.1491,-0.1491,-0.1492,-0.155,-0.1555,-0.156,0,0,0,0,0,-0.1344,-0.1355,-0.1359,-0.1362,-0.138,-0.1386,-0.139,-0.1407,-0.1423,-0.1429,-0.1453,-0.1445,-0.1479,-0.1476,-0.1478,-0.1495,-0.149,-0.1491,-0.1492,-0.1548,-0.1554,-0.156,0,0,0,0,0,0,-0.135,-0.1359,-0.1363,-0.1377,-0.1384,-0.1391,-0.141,-0.1417,-0.1441,-0.1457,-0.1459,-0.1464,-0.1492,-0.1483,-0.1479,-0.1503,-0.1479,-0.1481,-0.1521,-0.1527,-0.1532,-0.1533,-0.1463,0,0,0,0,0,-0.1354,-0.1365,-0.1369,-0.1383,-0.1391,-0.1404,-0.1415,-0.1424,-0.1441,-0.1453,-0.1467,-0.1481,-0.1493,-0.1504,-0.1508,-0.1529,-0.1507,-0.1536,-0.1541,-0.1545,-0.1546,-0.154,-0.1545,-0.1495,-0.1495,-0.1495,0,0,-0.1363,-0.1369,-0.1377,-0.1386,-0.1399,-0.1415,-0.1412,-0.1435,-0.1454,-0.1453,-0.1496,-0.1501,-0.1501,-0.1525,-0.1536,-0.1525,-0.1545,-0.1546,-0.155,-0.1548,-0.1542,-0.1547,-0.1551,-0.1496,-0.1496,-0.1496,0,0,-0.1378,-0.1391,-0.1403,-0.1411,-0.143,-0.1438,-0.1448,-0.1465,-0.1482,-0.1511,-0.1519,-0.1542,-0.1555,-0.1565,-0.1569,-0.1601,-0.1569,-0.1594,-0.1624,-0.162,-0.1624,-0.1628,-0.1596,-0.1596,-0.1598,-0.1598,-0.1598,0,-0.139,-0.1401,-0.1408,-0.1421,-0.1438,-0.1452,-0.1471,-0.1488,-0.1513,-0.1528,-0.1532,-0.1564,-0.1574,-0.1601,-0.1617,-0.1614,-0.1592,-0.1608,-0.1627,-0.163,-0.1633,-0.16,-0.1599,-0.1601,-0.1601,-0.16,-0.16,0,-0.1403,-0.1424,-0.1436,-0.1458,-0.1475,-0.1495,-0.1516,-0.154,-0.1564,-0.1573,-0.1606,-0.1619,-0.1634,-0.1641,-0.1645,-0.1668,-0.164,-0.1635,-0.1617,-0.1642,-0.1604,-0.1603,-0.1605,-0.1604,-0.1603,-0.1603,0,0,-0.1398,-0.1437,-0.1445,-0.1461,-0.1498,-0.1508,-0.1552,-0.1579,-0.1603,-0.1628,-0.1651,-0.1686,-0.1687,-0.1691,-0.1695,-0.17,-0.1709,-0.1681,-0.168,-0.1655,-0.1676,-0.1552,-0.1538,-0.1708,-0.1708,-0.1709,-0.1639,0,-0.1408,-0.1438,-0.146,-0.15,-0.1517,-0.1549,-0.1583,-0.1612,-0.1636,-0.1661,-0.1679,-0.17,-0.1706,-0.1717,-0.1727,-0.1713,-0.1709,-0.1726,-0.1649,-0.1647,-0.1539,-0.1533,-0.171,-0.1637,-0.1637,-0.1637,-0.1636,0,-0.1405,-0.1428,-0.1466,-0.1513,-0.1526,-0.1556,-0.1607,-0.1635,-0.1673,-0.169,-0.1715,-0.1721,-0.1744,-0.1741,-0.1728,-0.1737,-0.1713,-0.1697,-0.1694,-0.1556,-0.152,-0.1608,-0.1633,-0.1633,-0.1634,-0.1634,-0.1634,0,-0.1375,-0.143,-0.1462,-0.1479,-0.1534,-0.1566,-0.16,-0.1644,-0.1663,-0.1706,-0.1711,-0.1739,-0.1737,-0.1732,-0.1701,-0.1718,-0.1662,-0.1677,-0.1538,-0.1528,-0.1637,-0.1634,-0.1661,-0.1661,-0.1661,-0.1661,-0.1661,0,-0.1354,-0.1381,-0.1455,-0.1466,-0.1506,-0.1554,-0.1591,-0.1628,-0.167,-0.1667,-0.172,-0.1703,-0.1735,-0.1705,-0.1692,-0.1589,-0.165,-0.153,-0.1501,-0.1661,-0.1662,-0.1635,-0.1633,-0.1659,-0.1659,-0.166,-0.166,0,-0.1296,-0.1349,-0.1386,-0.1461,-0.1487,-0.1512,-0.1577,-0.1589,-0.1642,-0.1638,-0.1649,-0.1672,-0.162,-0.1619,-0.1588,-0.1543,-0.1485,-0.1435,-0.158,-0.1562,-0.1359,-0.1361,-0.1276,-0.1271,-0.1267,-0.1263,-0.126,0,-0.126,-0.1278,-0.1367,-0.1387,-0.1422,-0.1471,-0.1492,-0.1563,-0.156,-0.1589,-0.156,-0.1544,-0.1537,-0.1385,-0.1412,-0.1352,-0.1343,-0.131,-0.1365,-0.1339,-0.132,-0.1329,-0.1336,-0.1254,-0.1253,-0.1251,-0.125,0,-0.119,-0.1239,-0.127,-0.1307,-0.1342,-0.1362,-0.1393,-0.1385,-0.1433,-0.1506,-0.1428,-0.1393,-0.1319,-0.1287,-0.1234,-0.1205,-0.1338,-0.1267,-0.1276,-0.1327,-0.1311,-0.1298,-0.131,-0.1236,-0.1238,-0.1239,-0.124,0,-0.114,-0.1146,-0.119,-0.1203,-0.1239,-0.1212,-0.1259,-0.124,-0.125,-0.1297,-0.1264,-0.1254,-0.1289,-0.1206,-0.1163,-0.1113,-0.1111,-0.1101,-0.112,-0.1136,-0.1123,-0.1085,-0.0901,0,0,0,0,0,-0.1079,-0.1063,-0.1074,-0.1074,-0.1099,-0.1107,-0.1158,-0.1203,-0.1262,-0.1173,-0.1216,-0.1145,-0.1076,-0.1083,-0.0998,-0.1091,-0.1111,-0.099,-0.111,-0.1155,-0.1172,-0.117,0,0,0,0,0,0,-0.1035,-0.1047,-0.1032,-0.094,-0.0915,-0.0916,-0.0944,-0.1,-0.0957,-0.1037,-0.1002,-0.1073,-0.1018,-0.109,-0.0969,-0.0969,-0.1022,-0.1004,-0.1001,-0.1145,-0.116,-0.1174,-0.1178,0,0,0,0,0]},{"header":{"parameterUnit":"m.s-1","parameterCategory":2,"la1":30.2991,"la2":30.254,"lo1":-89.0895,"lo2":-89.0444,"dy":0.0017,"dx":0.0017,"nx":28,"ny":28,"refTime":"2024-08-16T03:00:00:Z","depth":"4","parameterNumber":3,"parameterNumberName":"V-component_of_CURRENTS"},"data":[0,0,0,0,0,0,0,0,0,0,0,0,0,0,0,0,0,0,0,0,0,0,0,0,0,0,0,0,0,0,0,0,0,0,0,0,0,0,0,0,0,0,0,0,0,0,0,0,0,0,0,0,0,0,0,0,0,0,-0.0351,-0.0351,0,-0.033,-0.033,-0.033,-0.032,-0.0321,-0.0321,-0.0321,-0.0271,-0.027,-0.0269,0,0,0,0,0,0,0,0,0,0,0,0,0,-0.0361,-0.0361,-0.0351,-0.0351,-0.0351,-0.033,-0.033,-0.033,-0.032,-0.0321,-0.0321,-0.0321,-0.0272,-0.027,-0.0268,0,0,0,0,0,0,0,0,0,0,0,0,0,-0.0349,-0.0361,-0.0351,-0.0344,-0.0344,-0.0331,-0.033,-0.033,-0.032,-0.0321,-0.0321,-0.0321,-0.0272,-0.027,-0.0268,-0.0252,0,0,-0.0262,-0.0261,0,0,0,0,0,0,0,0,-0.035,-0.0349,-0.0346,-0.0345,-0.0344,-0.0329,-0.0315,-0.0303,-0.032,-0.0328,-0.0321,-0.0321,-0.0288,-0.0285,-0.028,-0.025,-0.0248,-0.0262,-0.026,-0.0259,-0.0259,0,0,0,0,0,0,0,-0.0351,-0.035,-0.0342,-0.0345,-0.0344,-0.0335,-0.0333,-0.0313,-0.0307,-0.0328,-0.0327,-0.0326,-0.0288,-0.0282,-0.0279,-0.0247,-0.0262,-0.026,-0.0258,-0.0258,-0.0206,-0.0206,0,0,0,0,0,0,-0.0356,-0.035,-0.0343,-0.0342,-0.0348,-0.0335,-0.0333,-0.0333,-0.0308,-0.0304,-0.0326,-0.0326,-0.0286,-0.0281,-0.0277,-0.0254,-0.0259,-0.0257,-0.0256,-0.0206,-0.0206,-0.0206,0,0,0,0,0,0,-0.0356,-0.0356,-0.0344,-0.0346,-0.0344,-0.0334,-0.0334,-0.0332,-0.0333,-0.0307,-0.0303,-0.0329,-0.0286,-0.028,-0.0261,-0.0252,-0.0257,-0.0255,-0.0207,-0.0206,-0.0206,-0.021,0,0,0,0,0,0,-0.0357,-0.0356,-0.036,-0.0347,-0.0344,-0.0346,-0.0334,-0.0332,-0.0332,-0.0332,-0.0308,-0.0303,-0.0285,-0.0264,-0.0259,-0.0249,-0.0253,-0.0207,-0.0207,-0.0206,-0.021,-0.021,-0.021,0,0,0,0,0,-0.0357,-0.0364,-0.0361,-0.036,-0.035,-0.0346,-0.0345,-0.0337,-0.0332,-0.0337,-0.0315,-0.0304,-0.0259,-0.0262,-0.0256,-0.0246,-0.0207,-0.0207,-0.0206,-0.021,-0.021,-0.021,0,0,0,0,0,0,-0.0371,-0.0363,-0.0359,-0.0364,-0.036,-0.0345,-0.0349,-0.0342,-0.0329,-0.0328,-0.0301,-0.0295,-0.0274,-0.0263,-0.0267,-0.0232,-0.0232,-0.023,-0.0237,-0.0237,-0.0237,-0.0232,-0.0251,0,0,0,0,0,-0.0376,-0.0382,-0.037,-0.0377,-0.0374,-0.0362,-0.0361,-0.0356,-0.0342,-0.0337,-0.032,-0.0297,-0.0267,-0.0255,-0.0235,-0.0216,-0.019,-0.0207,-0.0207,-0.0207,-0.0199,-0.0146,-0.014,-0.0206,-0.0206,-0.0206,0,0,-0.0385,-0.0382,-0.0385,-0.0381,-0.0376,-0.0371,-0.0362,-0.0365,-0.0355,-0.0332,-0.0319,-0.0297,-0.0263,-0.0239,-0.0229,-0.0229,-0.0178,-0.0206,-0.0207,-0.0199,-0.0145,-0.0138,-0.0132,-0.0205,-0.0205,-0.0205,0,0,-0.0402,-0.0401,-0.0407,-0.0403,-0.0399,-0.0388,-0.0391,-0.038,-0.0371,-0.0358,-0.033,-0.0298,-0.0277,-0.0235,-0.0212,-0.0199,-0.018,-0.0206,-0.0199,-0.0147,-0.0141,-0.0135,-0.0107,-0.0098,-0.0206,-0.0206,-0.0206,0,-0.0412,-0.0415,-0.041,-0.041,-0.0406,-0.0396,-0.0395,-0.0381,-0.0366,-0.0352,-0.036,-0.0296,-0.0266,-0.0206,-0.0201,-0.0195,-0.0178,-0.02,-0.0146,-0.0139,-0.0133,-0.0105,-0.0096,-0.0206,-0.0206,-0.0206,-0.0206,0,-0.0425,-0.0428,-0.0432,-0.0425,-0.0421,-0.0423,-0.0401,-0.0395,-0.0386,-0.0368,-0.0329,-0.0287,-0.0247,-0.0232,-0.021,-0.0151,-0.0158,-0.0151,-0.0144,-0.0126,-0.0099,-0.0089,-0.0206,-0.0206,-0.0206,-0.0206,0,0,-0.0446,-0.0441,-0.0444,-0.0443,-0.0429,-0.0428,-0.0408,-0.0383,-0.0369,-0.0349,-0.0322,-0.0257,-0.0241,-0.0213,-0.0179,-0.0131,-0.007,-0.0128,-0.0125,-0.0097,0.0023,0.0001,0.001,-0.0059,-0.0057,-0.0056,0.002,0,-0.0457,-0.0465,-0.0454,-0.0455,-0.0454,-0.0434,-0.0417,-0.0393,-0.0373,-0.0349,-0.029,-0.0259,-0.0231,-0.0216,-0.0158,-0.0096,-0.0043,-0.0092,-0.0001,0.0002,-0.0016,0.0022,-0.005,0.0028,0.003,0.0032,0.0033,0,-0.0469,-0.0472,-0.0479,-0.0468,-0.0466,-0.0465,-0.0439,-0.0423,-0.0374,-0.0358,-0.031,-0.0278,-0.0197,-0.0186,-0.0056,-0.0097,-0.0033,0.0016,0.002,0.0012,-0.0,0.001,0.0051,0.005,0.0049,0.0047,0.0046,0,-0.0488,-0.0487,-0.0496,-0.0494,-0.048,-0.0478,-0.0469,-0.0431,-0.0416,-0.0366,-0.0355,-0.0267,-0.0227,-0.0134,-0.0036,-0.0047,0.0094,0.0095,0.0141,0.0139,0.0136,0.0129,0.0201,0.0201,0.0201,0.0201,0.0201,0,-0.0498,-0.0507,-0.0513,-0.0519,-0.053,-0.0508,-0.0508,-0.0484,-0.0448,-0.0433,-0.0366,-0.0331,-0.0212,-0.0126,-0.0037,0.0077,0.01,0.0155,0.0167,0.0129,0.0121,0.0142,0.0134,0.0204,0.0203,0.0203,0.0202,0,-0.0517,-0.052,-0.0538,-0.054,-0.0545,-0.0556,-0.055,-0.0547,-0.0505,-0.0484,-0.0471,-0.0369,-0.0255,-0.0139,0.0016,0.0074,0.0185,0.0224,0.0163,0.0168,0.0193,0.0184,0.0281,0.0281,0.0281,0.0282,0.0282,0,-0.0524,-0.0537,-0.0567,-0.0591,-0.0599,-0.0611,-0.0622,-0.0587,-0.0579,-0.0506,-0.0497,-0.0384,-0.031,-0.0108,0.0018,0.0185,0.021,0.0253,0.0243,0.0204,0.0206,0.0197,0.0188,0.0282,0.0282,0.0282,0.0282,0,-0.054,-0.0562,-0.0581,-0.0632,-0.0661,-0.068,-0.0689,-0.0681,-0.0637,-0.0601,-0.0512,-0.0401,-0.0268,-0.0112,0.0019,0.014,0.0213,0.0255,0.0256,0.0246,0.0206,0.0206,0.0197,0.0282,0.0282,0.0282,0.0282,0,-0.056,-0.0587,-0.0625,-0.0663,-0.0709,-0.0736,-0.0731,-0.0706,-0.0682,-0.0596,-0.0567,-0.0412,-0.0316,-0.0133,-0.0012,0.0101,0.013,0.015,0.0157,0.0158,0.0097,0.0026,0.0072,0,0,0,0,0,-0.0572,-0.0606,-0.065,-0.0696,-0.0742,-0.0762,-0.077,-0.0753,-0.0709,-0.0657,-0.0607,-0.0482,-0.0281,-0.018,-0.0068,-0.0016,0.0141,0.0116,0.0164,0.0284,0.0283,0.0231,0,0,0,0,0,0,-0.0584,-0.0632,-0.0652,-0.0713,-0.0747,-0.0791,-0.0797,-0.0768,-0.0722,-0.0662,-0.0546,-0.0476,-0.0271,-0.0348,-0.0072,-0.0035,0.0005,0.0219,0.0221,0.0284,0.0284,0.0283,0.0229,0,0,0,0,0]}]]